Wetterdaten: Sonntag, 27.10.2013
Datum Zeit Temp. Auen Feucht Auen Luftdruck Regen Richtung Richtung Windben
27.10.2013 00:00 8,2 C 92 % 1017,1 hPa 0,0 mm W 274 1,6 km/h (1 Bft)
27.10.2013 00:05 8,3 C 92 % 1017,0 hPa 0,0 mm W 272 3,2 km/h (1 Bft)
27.10.2013 00:10 7,9 C 92 % 1017,0 hPa 0,0 mm W 272 3,2 km/h (1 Bft)
27.10.2013 00:15 7,6 C 92 % 1017,1 hPa 0,0 mm W 272 3,2 km/h (1 Bft)
27.10.2013 00:20 7,6 C 92 % 1017,0 hPa 0,0 mm W 272 3,2 km/h (1 Bft)
27.10.2013 00:25 7,9 C 92 % 1017,0 hPa 0,0 mm W 269 4,8 km/h (1 Bft)
27.10.2013 00:30 7,9 C 92 % 1016,9 hPa 0,0 mm W 269 1,6 km/h (1 Bft)
27.10.2013 00:35 8,0 C 92 % 1016,9 hPa 0,0 mm W 269 3,2 km/h (1 Bft)
27.10.2013 00:40 7,9 C 92 % 1016,8 hPa 0,0 mm W-NW 288 4,8 km/h (1 Bft)
27.10.2013 00:45 8,1 C 92 % 1016,9 hPa 0,0 mm W 278 3,2 km/h (1 Bft)
27.10.2013 00:50 8,1 C 92 % 1016,9 hPa 0,0 mm W 278 3,2 km/h (1 Bft)
27.10.2013 00:55 8,1 C 92 % 1016,7 hPa 0,0 mm W 279 4,8 km/h (1 Bft)
27.10.2013 01:00 8,2 C 92 % 1016,6 hPa 0,0 mm W 279 3,2 km/h (1 Bft)
27.10.2013 01:05 8,3 C 92 % 1016,6 hPa 0,0 mm W 274 4,8 km/h (1 Bft)
27.10.2013 01:10 8,3 C 92 % 1016,5 hPa 0,0 mm W 275 4,8 km/h (1 Bft)
27.10.2013 01:15 8,3 C 92 % 1016,5 hPa 0,0 mm W 275 3,2 km/h (1 Bft)
27.10.2013 01:20 8,2 C 92 % 1016,5 hPa 0,0 mm W 270 3,2 km/h (1 Bft)
27.10.2013 01:25 8,2 C 92 % 1016,4 hPa 0,0 mm W 270 1,6 km/h (1 Bft)
27.10.2013 01:30 8,2 C 92 % 1016,2 hPa 0,0 mm W 275 3,2 km/h (1 Bft)
27.10.2013 01:35 8,1 C 92 % 1016,2 hPa 0,0 mm W 269 4,8 km/h (1 Bft)
27.10.2013 01:40 8,1 C 92 % 1016,1 hPa 0,0 mm W 270 4,8 km/h (1 Bft)
27.10.2013 01:45 8,1 C 92 % 1016,1 hPa 0,0 mm W 270 3,2 km/h (1 Bft)
27.10.2013 01:50 8,1 C 92 % 1016,0 hPa 0,0 mm W 270 3,2 km/h (1 Bft)
27.10.2013 01:55 8,2 C 92 % 1015,9 hPa 0,0 mm W 269 3,2 km/h (1 Bft)
27.10.2013 02:00 7,8 C 92 % 1015,9 hPa 0,0 mm W 269 1,6 km/h (1 Bft)
27.10.2013 02:05 7,8 C 92 % 1015,9 hPa 0,0 mm NW 304 3,2 km/h (1 Bft)
27.10.2013 02:10 7,4 C 92 % 1015,9 hPa 0,0 mm NW 304 0,0 km/h (0 Bft)
27.10.2013 02:15 7,3 C 92 % 1015,9 hPa 0,0 mm NW 304 0,0 km/h (0 Bft)
27.10.2013 02:20 7,1 C 92 % 1015,8 hPa 0,0 mm NW 304 1,6 km/h (1 Bft)
27.10.2013 02:25 7,1 C 92 % 1015,8 hPa 0,0 mm NW 304 0,0 km/h (0 Bft)
27.10.2013 02:30 7,1 C 92 % 1015,7 hPa 0,0 mm NW 304 3,2 km/h (1 Bft)
27.10.2013 02:35 7,0 C 92 % 1015,7 hPa 0,0 mm NW 304 0,0 km/h (0 Bft)
27.10.2013 02:40 7,2 C 92 % 1015,6 hPa 0,0 mm NW 304 0,0 km/h (0 Bft)
27.10.2013 02:45 7,1 C 92 % 1015,5 hPa 0,0 mm NW 304 0,0 km/h (0 Bft)
27.10.2013 02:50 7,1 C 92 % 1015,5 hPa 0,0 mm W 261 4,8 km/h (1 Bft)
27.10.2013 02:55 7,0 C 92 % 1015,4 hPa 0,2 mm W 279 6,4 km/h (2 Bft)
27.10.2013 02:00 6,6 C 92 % 1015,4 hPa 0,0 mm W 279 3,2 km/h (1 Bft)
27.10.2013 02:05 6,7 C 92 % 1015,3 hPa 0,0 mm W 279 3,2 km/h (1 Bft)
27.10.2013 02:10 6,7 C 92 % 1015,2 hPa 0,0 mm W 279 1,6 km/h (1 Bft)
27.10.2013 02:15 6,5 C 92 % 1015,1 hPa 0,0 mm W 263 1,6 km/h (1 Bft)
27.10.2013 02:20 6,6 C 92 % 1015,2 hPa 0,0 mm W 275 3,2 km/h (1 Bft)
27.10.2013 02:25 6,9 C 93 % 1015,1 hPa 0,0 mm W 269 4,8 km/h (1 Bft)
27.10.2013 02:30 6,7 C 93 % 1015,0 hPa 0,0 mm W 280 3,2 km/h (1 Bft)
27.10.2013 02:35 6,6 C 92 % 1015,0 hPa 0,0 mm W 280 1,6 km/h (1 Bft)
27.10.2013 02:40 6,8 C 93 % 1014,9 hPa 0,0 mm W-NW 283 4,8 km/h (1 Bft)
27.10.2013 02:45 6,9 C 92 % 1015,0 hPa 0,0 mm W 264 4,8 km/h (1 Bft)
27.10.2013 02:50 6,9 C 93 % 1015,2 hPa 0,0 mm W 264 1,6 km/h (1 Bft)
27.10.2013 02:55 6,8 C 93 % 1015,1 hPa 0,0 mm W 264 3,2 km/h (1 Bft)
27.10.2013 03:00 6,7 C 92 % 1015,0 hPa 0,0 mm W 265 3,2 km/h (1 Bft)
27.10.2013 03:05 6,9 C 93 % 1015,0 hPa 0,0 mm W 276 6,4 km/h (2 Bft)
27.10.2013 03:10 7,1 C 92 % 1015,0 hPa 0,0 mm W-NW 287 6,4 km/h (2 Bft)
27.10.2013 03:15 7,3 C 92 % 1015,0 hPa 0,0 mm W 280 6,4 km/h (2 Bft)
27.10.2013 03:20 7,4 C 92 % 1015,1 hPa 0,0 mm W 280 4,8 km/h (1 Bft)
27.10.2013 03:25 7,4 C 93 % 1015,0 hPa 0,0 mm W 277 3,2 km/h (1 Bft)
27.10.2013 03:30 7,3 C 92 % 1015,0 hPa 0,0 mm W-SW 253 4,8 km/h (1 Bft)
27.10.2013 03:35 7,2 C 92 % 1015,2 hPa 0,0 mm W-SW 253 4,8 km/h (1 Bft)
27.10.2013 03:40 7,0 C 92 % 1015,0 hPa 0,0 mm W-SW 253 1,6 km/h (1 Bft)
27.10.2013 03:45 6,7 C 92 % 1015,2 hPa 0,0 mm W-NW 303 1,6 km/h (1 Bft)
27.10.2013 03:50 6,8 C 92 % 1015,1 hPa 0,0 mm NW 325 3,2 km/h (1 Bft)
27.10.2013 03:55 6,3 C 92 % 1015,1 hPa 0,0 mm NW 325 1,6 km/h (1 Bft)
27.10.2013 04:00 6,3 C 92 % 1015,0 hPa 0,0 mm W-SW 244 3,2 km/h (1 Bft)
27.10.2013 04:05 6,4 C 93 % 1015,0 hPa 0,0 mm W-SW 244 0,0 km/h (0 Bft)
27.10.2013 04:10 6,3 C 92 % 1015,0 hPa 0,0 mm SW 233 1,6 km/h (1 Bft)
27.10.2013 04:15 6,1 C 93 % 1014,8 hPa 0,0 mm SW 233 0,0 km/h (0 Bft)
27.10.2013 04:20 6,1 C 92 % 1014,8 hPa 0,0 mm W 265 3,2 km/h (1 Bft)
27.10.2013 04:25 6,3 C 93 % 1014,9 hPa 0,0 mm W 266 4,8 km/h (1 Bft)
27.10.2013 04:30 6,3 C 93 % 1014,9 hPa 0,0 mm W 266 3,2 km/h (1 Bft)
27.10.2013 04:35 6,3 C 93 % 1014,9 hPa 0,0 mm W 267 6,4 km/h (2 Bft)
27.10.2013 04:40 6,4 C 93 % 1015,0 hPa 0,0 mm W 275 6,4 km/h (2 Bft)
27.10.2013 04:45 6,2 C 93 % 1015,0 hPa 0,0 mm W 275 3,2 km/h (1 Bft)
27.10.2013 04:50 6,1 C 93 % 1015,0 hPa 0,0 mm W 275 3,2 km/h (1 Bft)
27.10.2013 04:55 6,1 C 93 % 1015,0 hPa 0,0 mm W 275 3,2 km/h (1 Bft)
27.10.2013 05:00 6,2 C 93 % 1015,0 hPa 0,0 mm W 275 4,8 km/h (1 Bft)
27.10.2013 05:05 6,2 C 93 % 1015,1 hPa 0,0 mm W 275 1,6 km/h (1 Bft)
27.10.2013 05:10 6,3 C 93 % 1015,2 hPa 0,0 mm W 275 1,6 km/h (1 Bft)
27.10.2013 05:15 6,4 C 93 % 1015,3 hPa 0,0 mm W 271 6,4 km/h (2 Bft)
27.10.2013 05:20 6,7 C 93 % 1015,4 hPa 0,0 mm W-NW 290 6,4 km/h (2 Bft)
27.10.2013 05:25 7,1 C 93 % 1015,5 hPa 0,0 mm W-NW 287 6,4 km/h (2 Bft)
27.10.2013 05:30 7,6 C 93 % 1015,5 hPa 0,0 mm W 273 8,0 km/h (2 Bft)
27.10.2013 05:35 7,8 C 93 % 1015,5 hPa 0,0 mm W 263 6,4 km/h (2 Bft)
27.10.2013 05:40 8,8 C 93 % 1015,8 hPa 0,0 mm W 261 17,7 km/h (3 Bft)
27.10.2013 05:45 9,6 C 92 % 1016,2 hPa 0,0 mm W-SW 258 24,1 km/h (4 Bft)
27.10.2013 05:50 10,1 C 92 % 1016,3 hPa 0,0 mm W 273 17,7 km/h (3 Bft)
27.10.2013 05:55 10,3 C 91 % 1016,4 hPa 0,0 mm W 265 11,3 km/h (2 Bft)
27.10.2013 06:00 10,2 C 89 % 1016,3 hPa 0,0 mm W 277 6,4 km/h (2 Bft)
27.10.2013 06:05 10,1 C 89 % 1016,5 hPa 0,0 mm W 277 3,2 km/h (1 Bft)
27.10.2013 06:10 9,8 C 89 % 1016,7 hPa 0,0 mm W 272 6,4 km/h (2 Bft)
27.10.2013 06:15 9,6 C 89 % 1016,7 hPa 0,0 mm W 271 6,4 km/h (2 Bft)
27.10.2013 06:20 9,5 C 89 % 1016,7 hPa 0,0 mm W 268 8,0 km/h (2 Bft)
27.10.2013 06:25 9,5 C 90 % 1016,8 hPa 0,0 mm W 279 8,0 km/h (2 Bft)
27.10.2013 06:30 9,6 C 89 % 1016,9 hPa 0,0 mm W 271 8,0 km/h (2 Bft)
27.10.2013 06:35 9,6 C 89 % 1017,0 hPa 0,0 mm W 273 6,4 km/h (2 Bft)
27.10.2013 06:40 9,6 C 89 % 1017,0 hPa 0,0 mm W 273 3,2 km/h (1 Bft)
27.10.2013 06:45 9,4 C 89 % 1017,1 hPa 0,0 mm W 273 3,2 km/h (1 Bft)
27.10.2013 06:50 9,3 C 89 % 1017,0 hPa 0,0 mm W 273 3,2 km/h (1 Bft)
27.10.2013 06:55 9,2 C 90 % 1017,1 hPa 0,0 mm W 269 4,8 km/h (1 Bft)
27.10.2013 07:00 9,4 C 90 % 1017,2 hPa 0,0 mm W-NW 283 3,2 km/h (1 Bft)
27.10.2013 07:05 9,3 C 90 % 1017,2 hPa 0,0 mm W-NW 283 3,2 km/h (1 Bft)
27.10.2013 07:10 9,4 C 90 % 1017,3 hPa 0,0 mm W 275 6,4 km/h (2 Bft)
27.10.2013 07:15 9,3 C 90 % 1017,3 hPa 0,0 mm W 275 3,2 km/h (1 Bft)
27.10.2013 07:20 9,3 C 90 % 1017,4 hPa 0,0 mm W 279 6,4 km/h (2 Bft)
27.10.2013 07:25 9,5 C 90 % 1017,5 hPa 0,0 mm W-NW 283 8,0 km/h (2 Bft)
27.10.2013 07:30 9,8 C 90 % 1017,5 hPa 0,0 mm W 275 8,0 km/h (2 Bft)
27.10.2013 07:35 10,1 C 90 % 1017,4 hPa 0,0 mm W-NW 294 6,4 km/h (2 Bft)
27.10.2013 07:40 10,3 C 90 % 1017,5 hPa 0,0 mm W-NW 294 3,2 km/h (1 Bft)
27.10.2013 07:45 10,7 C 90 % 1017,5 hPa 0,0 mm W-NW 294 1,6 km/h (1 Bft)
27.10.2013 07:50 10,7 C 89 % 1017,6 hPa 0,0 mm W-NW 294 1,6 km/h (1 Bft)
27.10.2013 07:55 10,7 C 90 % 1017,6 hPa 0,0 mm W-NW 294 1,6 km/h (1 Bft)
27.10.2013 08:00 10,5 C 90 % 1017,6 hPa 0,0 mm W-NW 294 0,0 km/h (0 Bft)
27.10.2013 08:05 10,9 C 90 % 1017,7 hPa 0,0 mm W-NW 294 1,6 km/h (1 Bft)
27.10.2013 08:10 10,7 C 90 % 1017,8 hPa 0,0 mm W-NW 294 0,0 km/h (0 Bft)
27.10.2013 08:15 11,1 C 91 % 1017,8 hPa 0,0 mm W-NW 294 0,0 km/h (0 Bft)
27.10.2013 08:20 11,9 C 90 % 1017,9 hPa 0,0 mm W-NW 294 3,2 km/h (1 Bft)
27.10.2013 08:25 12,1 C 88 % 1018,0 hPa 0,0 mm W-NW 294 3,2 km/h (1 Bft)
27.10.2013 08:30 12,0 C 88 % 1018,2 hPa 0,0 mm W 265 3,2 km/h (1 Bft)
27.10.2013 08:35 11,9 C 88 % 1018,2 hPa 0,0 mm NW 309 4,8 km/h (1 Bft)
27.10.2013 08:40 12,0 C 89 % 1018,2 hPa 0,0 mm NW 309 0,0 km/h (0 Bft)
27.10.2013 08:45 12,1 C 89 % 1018,2 hPa 0,0 mm NW 309 0,0 km/h (0 Bft)
27.10.2013 08:50 12,2 C 89 % 1018,1 hPa 0,0 mm NW 309 0,0 km/h (0 Bft)
27.10.2013 08:55 12,3 C 89 % 1018,2 hPa 0,0 mm NW 309 0,0 km/h (0 Bft)
27.10.2013 09:00 12,3 C 89 % 1018,2 hPa 0,0 mm NW 309 0,0 km/h (0 Bft)
27.10.2013 09:05 12,4 C 90 % 1018,3 hPa 0,0 mm NW 309 0,0 km/h (0 Bft)
27.10.2013 09:10 12,4 C 89 % 1018,2 hPa 0,0 mm NW 309 0,0 km/h (0 Bft)
27.10.2013 09:15 12,6 C 90 % 1018,2 hPa 0,0 mm NW 309 0,0 km/h (0 Bft)
27.10.2013 09:20 12,7 C 89 % 1018,2 hPa 0,0 mm NW 309 0,0 km/h (0 Bft)
27.10.2013 09:25 12,8 C 89 % 1018,2 hPa 0,0 mm NW 309 0,0 km/h (0 Bft)
27.10.2013 09:30 12,9 C 89 % 1018,1 hPa 0,0 mm NW 309 0,0 km/h (0 Bft)
27.10.2013 09:35 12,9 C 89 % 1018,0 hPa 0,0 mm NW 309 0,0 km/h (0 Bft)
27.10.2013 09:40 13,0 C 89 % 1018,0 hPa 0,0 mm NW 309 0,0 km/h (0 Bft)
27.10.2013 09:45 13,2 C 89 % 1018,0 hPa 0,0 mm NW 309 0,0 km/h (0 Bft)
27.10.2013 09:50 13,6 C 88 % 1018,1 hPa 0,0 mm NW 309 0,0 km/h (0 Bft)
27.10.2013 09:55 13,7 C 88 % 1018,0 hPa 0,0 mm NW 309 0,0 km/h (0 Bft)
27.10.2013 10:00 13,9 C 88 % 1017,8 hPa 0,0 mm NW 309 0,0 km/h (0 Bft)
27.10.2013 10:05 13,9 C 88 % 1017,7 hPa 0,0 mm NW 309 0,0 km/h (0 Bft)
27.10.2013 10:10 14,0 C 88 % 1017,7 hPa 0,0 mm NW 309 0,0 km/h (0 Bft)
27.10.2013 10:15 14,1 C 87 % 1017,6 hPa 0,0 mm NW 309 0,0 km/h (0 Bft)
27.10.2013 10:20 14,3 C 89 % 1017,5 hPa 0,0 mm NW 309 0,0 km/h (0 Bft)
27.10.2013 10:25 14,3 C 88 % 1017,3 hPa 0,0 mm NW 309 0,0 km/h (0 Bft)
27.10.2013 10:30 14,4 C 90 % 1017,3 hPa 0,0 mm NW 309 0,0 km/h (0 Bft)
27.10.2013 10:35 14,4 C 90 % 1017,1 hPa 0,0 mm NW 309 0,0 km/h (0 Bft)
27.10.2013 10:40 14,6 C 89 % 1017,1 hPa 0,0 mm NW 309 0,0 km/h (0 Bft)
27.10.2013 10:45 14,7 C 89 % 1017,0 hPa 0,0 mm NW 309 0,0 km/h (0 Bft)
27.10.2013 10:50 14,8 C 89 % 1016,9 hPa 0,0 mm NW 309 0,0 km/h (0 Bft)
27.10.2013 10:55 15,0 C 89 % 1016,8 hPa 0,0 mm NW 309 0,0 km/h (0 Bft)
27.10.2013 11:00 15,2 C 87 % 1016,8 hPa 0,0 mm NW 309 0,0 km/h (0 Bft)
27.10.2013 11:05 15,2 C 87 % 1016,8 hPa 0,0 mm NW 309 0,0 km/h (0 Bft)
27.10.2013 11:10 15,4 C 87 % 1016,7 hPa 0,0 mm NW 309 0,0 km/h (0 Bft)
27.10.2013 11:15 15,4 C 86 % 1016,6 hPa 0,0 mm NW 309 0,0 km/h (0 Bft)
27.10.2013 11:20 15,5 C 87 % 1016,6 hPa 0,0 mm O 81 3,2 km/h (1 Bft)
27.10.2013 11:25 15,2 C 84 % 1016,5 hPa 0,0 mm O 83 3,2 km/h (1 Bft)
27.10.2013 11:30 15,1 C 85 % 1016,4 hPa 0,0 mm O 83 0,0 km/h (0 Bft)
27.10.2013 11:35 15,1 C 85 % 1016,3 hPa 0,0 mm O 83 0,0 km/h (0 Bft)
27.10.2013 11:40 15,3 C 85 % 1016,3 hPa 0,0 mm O 83 0,0 km/h (0 Bft)
27.10.2013 11:45 15,4 C 85 % 1016,3 hPa 0,0 mm O 83 0,0 km/h (0 Bft)
27.10.2013 11:50 15,6 C 86 % 1016,1 hPa 0,0 mm O 83 0,0 km/h (0 Bft)
27.10.2013 11:55 15,6 C 84 % 1016,1 hPa 0,0 mm O 83 0,0 km/h (0 Bft)
27.10.2013 12:00 15,7 C 83 % 1016,0 hPa 0,0 mm O 82 0,0 km/h (0 Bft)
27.10.2013 12:05 15,8 C 83 % 1015,9 hPa 0,0 mm O 82 0,0 km/h (0 Bft)
27.10.2013 12:10 15,8 C 82 % 1015,9 hPa 0,0 mm O 82 0,0 km/h (0 Bft)
27.10.2013 12:15 15,9 C 83 % 1015,8 hPa 0,0 mm O 82 0,0 km/h (0 Bft)
27.10.2013 12:20 16,1 C 83 % 1015,7 hPa 0,0 mm O 82 0,0 km/h (0 Bft)
27.10.2013 12:25 16,1 C 81 % 1015,7 hPa 0,0 mm O 82 0,0 km/h (0 Bft)
27.10.2013 12:30 16,3 C 82 % 1015,7 hPa 0,0 mm O 82 0,0 km/h (0 Bft)
27.10.2013 12:35 16,4 C 81 % 1015,6 hPa 0,0 mm O 82 0,0 km/h (0 Bft)
27.10.2013 12:40 16,5 C 81 % 1015,5 hPa 0,0 mm O 82 0,0 km/h (0 Bft)
27.10.2013 12:45 16,8 C 80 % 1015,4 hPa 0,0 mm O 82 0,0 km/h (0 Bft)
27.10.2013 12:50 16,9 C 79 % 1015,4 hPa 0,0 mm O 82 0,0 km/h (0 Bft)
27.10.2013 12:55 16,9 C 78 % 1015,3 hPa 0,0 mm O 82 0,0 km/h (0 Bft)
27.10.2013 13:00 17,2 C 78 % 1015,2 hPa 0,0 mm O 82 0,0 km/h (0 Bft)
27.10.2013 13:05 17,2 C 76 % 1015,1 hPa 0,0 mm O 82 0,0 km/h (0 Bft)
27.10.2013 13:10 17,4 C 74 % 1015,1 hPa 0,0 mm O 82 0,0 km/h (0 Bft)
27.10.2013 13:15 17,9 C 75 % 1015,0 hPa 0,0 mm O 82 0,0 km/h (0 Bft)
27.10.2013 13:20 18,1 C 74 % 1014,8 hPa 0,0 mm O 82 0,0 km/h (0 Bft)
27.10.2013 13:25 18,1 C 74 % 1014,8 hPa 0,0 mm N-NO 32 4,8 km/h (1 Bft)
27.10.2013 13:30 17,8 C 73 % 1014,7 hPa 0,0 mm SO 126 3,2 km/h (1 Bft)
27.10.2013 13:35 17,9 C 73 % 1014,7 hPa 0,0 mm W 269 4,8 km/h (1 Bft)
27.10.2013 13:40 18,4 C 69 % 1014,5 hPa 0,0 mm W 280 8,0 km/h (2 Bft)
27.10.2013 13:45 18,5 C 68 % 1014,4 hPa 0,0 mm W 261 6,4 km/h (2 Bft)
27.10.2013 13:50 18,5 C 69 % 1014,4 hPa 0,0 mm W 266 4,8 km/h (1 Bft)
27.10.2013 13:55 18,6 C 69 % 1014,2 hPa 0,0 mm W 266 4,8 km/h (1 Bft)
27.10.2013 14:00 18,3 C 69 % 1014,1 hPa 0,0 mm N-NW 337 3,2 km/h (1 Bft)
27.10.2013 14:05 18,3 C 73 % 1014,1 hPa 0,0 mm N-NW 340 1,6 km/h (1 Bft)
27.10.2013 14:10 17,9 C 75 % 1014,0 hPa 0,0 mm N-NO 32 3,2 km/h (1 Bft)
27.10.2013 14:15 17,9 C 77 % 1014,0 hPa 0,0 mm N-NO 32 4,8 km/h (1 Bft)
27.10.2013 14:20 17,9 C 74 % 1014,0 hPa 0,0 mm NO 44 4,8 km/h (1 Bft)
27.10.2013 14:25 18,0 C 73 % 1013,9 hPa 0,0 mm O-NO 66 3,2 km/h (1 Bft)
27.10.2013 14:30 18,2 C 71 % 1013,7 hPa 0,0 mm O 94 3,2 km/h (1 Bft)
27.10.2013 14:35 18,2 C 71 % 1013,7 hPa 0,0 mm O-SO 103 3,2 km/h (1 Bft)
27.10.2013 14:40 18,2 C 68 % 1013,7 hPa 0,0 mm O-SO 103 0,0 km/h (0 Bft)
27.10.2013 14:45 18,2 C 69 % 1013,7 hPa 0,0 mm O-SO 105 0,0 km/h (0 Bft)
27.10.2013 14:50 18,2 C 70 % 1013,6 hPa 0,0 mm O-SO 105 0,0 km/h (0 Bft)
27.10.2013 14:55 18,2 C 72 % 1013,6 hPa 0,0 mm O-SO 105 0,0 km/h (0 Bft)
27.10.2013 15:00 17,9 C 74 % 1013,6 hPa 0,0 mm O-SO 121 0,0 km/h (0 Bft)
27.10.2013 15:05 17,8 C 72 % 1013,5 hPa 0,0 mm SO 130 0,0 km/h (0 Bft)
27.10.2013 15:10 17,8 C 72 % 1013,5 hPa 0,0 mm SO 130 0,0 km/h (0 Bft)
27.10.2013 15:15 17,8 C 70 % 1013,5 hPa 0,0 mm SO 130 0,0 km/h (0 Bft)
27.10.2013 15:20 17,7 C 72 % 1013,6 hPa 0,0 mm SO 130 0,0 km/h (0 Bft)
27.10.2013 15:25 17,7 C 76 % 1013,5 hPa 0,0 mm SO 130 0,0 km/h (0 Bft)
27.10.2013 15:30 17,6 C 73 % 1013,5 hPa 0,0 mm SO 130 0,0 km/h (0 Bft)
27.10.2013 15:35 17,4 C 73 % 1013,4 hPa 0,0 mm SO 130 0,0 km/h (0 Bft)
27.10.2013 15:40 17,2 C 75 % 1013,3 hPa 0,0 mm SO 130 0,0 km/h (0 Bft)
27.10.2013 15:45 16,9 C 77 % 1013,3 hPa 0,0 mm SO 130 0,0 km/h (0 Bft)
27.10.2013 15:50 16,6 C 76 % 1013,2 hPa 0,0 mm SO 130 0,0 km/h (0 Bft)
27.10.2013 15:55 16,1 C 78 % 1013,3 hPa 0,0 mm SO 130 0,0 km/h (0 Bft)
27.10.2013 16:00 15,9 C 79 % 1013,3 hPa 0,0 mm SO 130 0,0 km/h (0 Bft)
27.10.2013 16:05 15,6 C 80 % 1013,2 hPa 0,0 mm SO 130 0,0 km/h (0 Bft)
27.10.2013 16:10 15,3 C 82 % 1013,2 hPa 0,0 mm SO 130 0,0 km/h (0 Bft)
27.10.2013 16:15 15,5 C 80 % 1013,4 hPa 0,0 mm SO 130 0,0 km/h (0 Bft)
27.10.2013 16:20 15,5 C 81 % 1013,4 hPa 0,0 mm SO 130 0,0 km/h (0 Bft)
27.10.2013 16:25 15,3 C 82 % 1013,1 hPa 0,0 mm SO 130 0,0 km/h (0 Bft)
27.10.2013 16:30 15,1 C 82 % 1013,1 hPa 0,0 mm SO 130 0,0 km/h (0 Bft)
27.10.2013 16:35 15,2 C 82 % 1013,2 hPa 0,0 mm SO 139 0,0 km/h (0 Bft)
27.10.2013 16:40 15,3 C 82 % 1013,2 hPa 0,0 mm S-SW 197 0,0 km/h (0 Bft)
27.10.2013 16:45 15,2 C 83 % 1013,4 hPa 0,0 mm S-SW 209 0,0 km/h (0 Bft)
27.10.2013 16:50 15,2 C 83 % 1013,4 hPa 0,0 mm S-SW 213 0,0 km/h (0 Bft)
27.10.2013 16:55 15,0 C 85 % 1013,1 hPa 0,0 mm SW 215 0,0 km/h (0 Bft)
27.10.2013 17:00 14,7 C 86 % 1013,4 hPa 0,0 mm SW 222 0,0 km/h (0 Bft)
27.10.2013 17:05 14,8 C 85 % 1013,5 hPa 0,0 mm W 265 4,8 km/h (1 Bft)
27.10.2013 17:10 14,9 C 85 % 1013,8 hPa 0,0 mm W 269 4,8 km/h (1 Bft)
27.10.2013 17:15 15,0 C 85 % 1013,7 hPa 0,0 mm W 269 1,6 km/h (1 Bft)
27.10.2013 17:20 14,9 C 86 % 1013,7 hPa 0,0 mm W 270 6,4 km/h (2 Bft)
27.10.2013 17:25 14,9 C 85 % 1014,3 hPa 0,0 mm W 277 8,0 km/h (2 Bft)
27.10.2013 17:30 15,2 C 84 % 1015,3 hPa 0,0 mm W-NW 284 25,7 km/h (4 Bft)
27.10.2013 17:35 15,2 C 86 % 1014,9 hPa 2,4 mm N 9 29,0 km/h (5 Bft)
27.10.2013 17:40 14,7 C 87 % 1015,3 hPa 1,2 mm W 271 8,0 km/h (2 Bft)
27.10.2013 17:45 14,3 C 89 % 1015,2 hPa 0,4 mm W 269 8,0 km/h (2 Bft)
27.10.2013 17:50 14,1 C 89 % 1015,6 hPa 0,0 mm W-SW 253 9,7 km/h (2 Bft)
27.10.2013 17:55 13,8 C 90 % 1015,6 hPa 0,0 mm W-NW 283 6,4 km/h (2 Bft)
27.10.2013 18:00 13,8 C 90 % 1015,7 hPa 0,0 mm W-NW 298 9,7 km/h (2 Bft)
27.10.2013 18:05 13,7 C 90 % 1015,9 hPa 0,0 mm W 272 4,8 km/h (1 Bft)
27.10.2013 18:10 13,7 C 91 % 1016,3 hPa 0,2 mm W-NW 288 6,4 km/h (2 Bft)
27.10.2013 18:15 13,6 C 91 % 1016,3 hPa 0,4 mm W 263 6,4 km/h (2 Bft)
27.10.2013 18:20 13,6 C 91 % 1016,4 hPa 0,4 mm W 276 6,4 km/h (2 Bft)
27.10.2013 18:25 13,6 C 91 % 1016,2 hPa 0,2 mm NW 313 12,9 km/h (3 Bft)
27.10.2013 18:30 13,6 C 91 % 1015,9 hPa 0,2 mm NW 306 3,2 km/h (1 Bft)
27.10.2013 18:35 13,6 C 91 % 1015,9 hPa 0,0 mm NW 306 0,0 km/h (0 Bft)
27.10.2013 18:40 13,5 C 91 % 1015,8 hPa 0,2 mm NW 306 0,0 km/h (0 Bft)
27.10.2013 18:45 13,5 C 91 % 1015,6 hPa 0,0 mm N-NO 12 4,8 km/h (1 Bft)
27.10.2013 18:50 13,4 C 91 % 1015,5 hPa 0,0 mm N-NO 12 3,2 km/h (1 Bft)
27.10.2013 18:55 13,3 C 91 % 1015,5 hPa 0,0 mm N-NO 12 1,6 km/h (1 Bft)
27.10.2013 19:00 13,2 C 91 % 1015,5 hPa 0,0 mm N-NO 12 1,6 km/h (1 Bft)
27.10.2013 19:05 13,1 C 91 % 1015,5 hPa 0,0 mm S-SO 161 4,8 km/h (1 Bft)
27.10.2013 19:10 12,9 C 91 % 1015,4 hPa 0,0 mm S-SO 160 3,2 km/h (1 Bft)
27.10.2013 19:15 12,8 C 91 % 1015,6 hPa 0,0 mm S-SO 160 1,6 km/h (1 Bft)
27.10.2013 19:20 12,9 C 91 % 1015,4 hPa 0,0 mm S-SO 160 1,6 km/h (1 Bft)
27.10.2013 19:25 12,8 C 91 % 1015,4 hPa 0,0 mm S-SO 160 1,6 km/h (1 Bft)
27.10.2013 19:30 12,7 C 92 % 1015,6 hPa 0,0 mm S-SO 160 1,6 km/h (1 Bft)
27.10.2013 19:35 12,7 C 92 % 1015,6 hPa 0,0 mm S-SO 160 4,8 km/h (1 Bft)
27.10.2013 19:40 12,7 C 92 % 1015,6 hPa 0,0 mm S-SO 160 1,6 km/h (1 Bft)
27.10.2013 19:45 12,7 C 92 % 1015,7 hPa 0,0 mm S-SO 160 1,6 km/h (1 Bft)
27.10.2013 19:50 12,7 C 92 % 1015,8 hPa 0,0 mm S-SO 160 0,0 km/h (0 Bft)
27.10.2013 19:55 12,6 C 92 % 1015,8 hPa 0,0 mm S-SO 160 0,0 km/h (0 Bft)
27.10.2013 20:00 12,7 C 92 % 1015,7 hPa 0,0 mm O 86 3,2 km/h (1 Bft)
27.10.2013 20:05 12,7 C 92 % 1015,8 hPa 0,0 mm O 86 3,2 km/h (1 Bft)
27.10.2013 20:10 12,6 C 92 % 1015,8 hPa 0,0 mm O 86 1,6 km/h (1 Bft)
27.10.2013 20:15 12,6 C 92 % 1016,0 hPa 0,0 mm O 86 0,0 km/h (0 Bft)
27.10.2013 20:20 12,6 C 92 % 1016,1 hPa 0,0 mm O 86 0,0 km/h (0 Bft)
27.10.2013 20:25 12,7 C 92 % 1016,2 hPa 0,0 mm O 86 1,6 km/h (1 Bft)
27.10.2013 20:30 12,7 C 92 % 1016,2 hPa 0,0 mm O 86 0,0 km/h (0 Bft)
27.10.2013 20:35 12,7 C 92 % 1016,0 hPa 0,0 mm W-NW 290 4,8 km/h (1 Bft)
27.10.2013 20:40 12,7 C 92 % 1016,0 hPa 0,0 mm N-NW 331 1,6 km/h (1 Bft)
27.10.2013 20:45 12,7 C 92 % 1016,0 hPa 0,0 mm N-NW 332 1,6 km/h (1 Bft)
27.10.2013 20:50 12,7 C 92 % 1016,0 hPa 0,0 mm N-NW 332 0,0 km/h (0 Bft)
27.10.2013 20:55 12,6 C 92 % 1016,0 hPa 0,0 mm N-NW 332 0,0 km/h (0 Bft)
27.10.2013 21:00 12,6 C 92 % 1016,0 hPa 0,0 mm N-NW 332 0,0 km/h (0 Bft)
27.10.2013 21:05 12,6 C 92 % 1016,0 hPa 0,0 mm N-NW 332 0,0 km/h (0 Bft)
27.10.2013 21:10 12,6 C 92 % 1016,2 hPa 0,0 mm N-NW 332 0,0 km/h (0 Bft)
27.10.2013 21:15 12,6 C 92 % 1016,1 hPa 0,0 mm N-NW 332 0,0 km/h (0 Bft)
27.10.2013 21:20 12,6 C 92 % 1016,2 hPa 0,0 mm N-NW 332 1,6 km/h (1 Bft)
27.10.2013 21:25 12,6 C 92 % 1016,0 hPa 0,0 mm N-NW 332 3,2 km/h (1 Bft)
27.10.2013 21:30 12,6 C 92 % 1016,1 hPa 0,0 mm N-NW 332 0,0 km/h (0 Bft)
27.10.2013 21:35 12,5 C 92 % 1016,1 hPa 0,0 mm N-NW 332 0,0 km/h (0 Bft)
27.10.2013 21:40 12,6 C 92 % 1016,0 hPa 0,0 mm N-NW 332 0,0 km/h (0 Bft)
27.10.2013 21:45 12,6 C 92 % 1016,0 hPa 0,0 mm N-NW 332 0,0 km/h (0 Bft)
27.10.2013 21:50 12,6 C 92 % 1015,8 hPa 0,0 mm N-NW 332 0,0 km/h (0 Bft)
27.10.2013 21:55 12,5 C 92 % 1015,9 hPa 0,0 mm N-NW 332 1,6 km/h (1 Bft)
27.10.2013 22:00 12,5 C 92 % 1015,9 hPa 0,0 mm N-NW 332 0,0 km/h (0 Bft)
27.10.2013 22:05 12,5 C 93 % 1015,9 hPa 0,0 mm N-NW 332 0,0 km/h (0 Bft)
27.10.2013 22:10 12,4 C 93 % 1016,1 hPa 0,0 mm N-NW 332 1,6 km/h (1 Bft)
27.10.2013 22:15 12,5 C 93 % 1016,1 hPa 0,0 mm N-NW 332 0,0 km/h (0 Bft)
27.10.2013 22:20 12,6 C 93 % 1016,1 hPa 0,0 mm NW 304 3,2 km/h (1 Bft)
27.10.2013 22:25 12,6 C 93 % 1016,1 hPa 0,0 mm NW 304 0,0 km/h (0 Bft)
27.10.2013 22:30 12,7 C 92 % 1016,1 hPa 0,0 mm W 280 6,4 km/h (2 Bft)
27.10.2013 22:35 12,9 C 93 % 1016,1 hPa 0,0 mm W 280 0,0 km/h (0 Bft)
27.10.2013 22:40 12,9 C 92 % 1016,1 hPa 0,0 mm W 280 0,0 km/h (0 Bft)
27.10.2013 22:45 13,0 C 92 % 1016,1 hPa 0,0 mm W 280 0,0 km/h (0 Bft)
27.10.2013 22:50 13,0 C 92 % 1016,1 hPa 0,0 mm W 280 0,0 km/h (0 Bft)
27.10.2013 22:55 13,0 C 92 % 1016,2 hPa 0,0 mm W 266 4,8 km/h (1 Bft)
27.10.2013 23:00 13,0 C 92 % 1016,3 hPa 0,0 mm W 266 3,2 km/h (1 Bft)
27.10.2013 23:05 13,0 C 92 % 1016,3 hPa 0,0 mm W-NW 296 6,4 km/h (2 Bft)
27.10.2013 23:10 13,1 C 92 % 1016,3 hPa 0,0 mm W-NW 295 3,2 km/h (1 Bft)
27.10.2013 23:15 13,1 C 92 % 1016,3 hPa 0,0 mm W-NW 283 4,8 km/h (1 Bft)
27.10.2013 23:20 13,1 C 92 % 1016,4 hPa 0,0 mm W 279 4,8 km/h (1 Bft)
27.10.2013 23:25 13,2 C 92 % 1016,4 hPa 0,0 mm W 278 3,2 km/h (1 Bft)
27.10.2013 23:30 13,3 C 92 % 1016,5 hPa 0,0 mm W 279 8,0 km/h (2 Bft)
27.10.2013 23:35 13,3 C 92 % 1016,5 hPa 0,2 mm W 278 16,1 km/h (3 Bft)
27.10.2013 23:40 13,5 C 91 % 1016,6 hPa 0,0 mm W 267 14,5 km/h (3 Bft)
27.10.2013 23:45 13,6 C 91 % 1016,6 hPa 0,0 mm W 281 4,8 km/h (1 Bft)
27.10.2013 23:50 13,6 C 90 % 1016,6 hPa 0,0 mm W 272 4,8 km/h (1 Bft)
27.10.2013 23:55 13,5 C 90 % 1016,6 hPa 0,0 mm W 268 6,4 km/h (2 Bft)
_ Min-Zeit 04:20 13:45 16:25 - - - 02:10
Minimum _ 6,0 C 68 % 1013,1 hPa - - - 0,0 km/h (0 Bft)
_ Max-Zeit 13:50 02:25 09:05 17:35 - - 17:35
Maximum _ 18,6 C 93 % 1018,3 hPa 2,4 mm - - 29,0 km/h
W (5 Bft)
Durchschnitt _ 12,3 C 88 % 1015,8 hPa #6,0 mm W - 2,9 km/h (1 Bft)